STARLINK-1892, 46743

Orbit data source: Space-Track

STARLINK-1892, 46743 is a payload satellite owned by SpaceX/Seattle (US) in LEO that was launched on Sat, 24 Oct 2020 UTC via an FALCON 9 launch vehicle from the Air Force Eastern Test Range (AFETR). Payloads include a variety of satellites, spacecraft, and rockets equipped with specific instruments for various scientific and technological missions. These include communications satellites like Starlink; space stations such as the ISS; scientific satellites like the Hubble; Earth observation satellites from companies like Planet Labs, Umbra, and HawkEye 360; GPS; miniature CubeSats for education and research; and military/defense satellites.

Loading next visibility...
STARLINK-1892 details
Identifier
46743, 2020-074E
Orbit
LEO
Last TLE update7 hours ago
Origin
Flag of USSpaceX/Seattle (US)
ManufacturerSpaceX/Seattle
MissionOperational Commercial Communications
Bus & MotorSTARLINK, Unknown motor
Mass260 kg wet, ~248 kg dry
Launch date (UTC)
2020-10-24 (4 years ago)
Launch vehicle
FALCON 9
Launch site
Air Force Eastern Test Range (AFETR)
Object type
Payload
Rocket body
Debris
Shape & HBRBox + 1 Pan, 8.86 m
Radar Cross Section13.562 m², Large (>1 m²)

Expand to show TLE details & history

TLE from 7 hours ago
0 STARLINK-1892
1 46743U 20074E   24346.57815657  .00000066  00000-0  23333-4 0  9990
2 46743  53.0510 195.7112 0001470  91.0542 269.0615 15.06395183228382
Epoch: 2024-12-11T13:52Z
Definitive object data (Epoch: 2024-12-11T13:52:32.727Z)
Latitude-0.00006°
Longitude-93.19604°
Altitude548.122 km
Speed7.589 km/s
True Right ascension13h 02m 50s
True Declination0° 00' 00"
Sunlit
Object was in daylight at TLE epoch
Visualization TLE readout
Latitude-40.20686°
Longitude124.63914°
Altitude561.271 km
Speed7.58 km/s
Apparent Right ascension05h 31m 52s
Apparent Declination-44° 12' 08"
Sunlit
Object is in daylight
Visualization observer readout
Local Sidereal Time19:40:28
Azimuth110.848° ESE
Elevation-65.907°
Doppler factor1
Orbital elements
Apogee altitude548.516 km
Perigee altitude546.48 km
Semi-major axis6,925.635 km
Eccentricity0.000147
Inclination53.051°
RAAN195.7112°
Arg. of periapsis91.0542°
True anomaly269.04466°
Mean anomaly269.0615°
Eccentric anomaly269.05308°
Mean motion3.76577 °/min
BSTAR0.000023333
Orbital period95.6 mins
Loading maneuver chart data...

STARLINK-1892 Visibility forecast

Observer location: undefined°, undefined

Span
Click to sort rows by Start time (UTC) header in descending order
Start Az.
Max El. time (UTC)
Max El. Az.
Max El.
End time (UTC)
End Az.
6 mins2024-12-11 22:16:39.129Z333.178° NNW2024-12-11 22:19:39.129Z24.093° NE20.485°2024-12-11 22:22:39.129Z73.257° E
6 mins2024-12-11 23:56:39.129Z307.9° NW2024-12-11 23:59:39.129Z176.324° S44.672°2024-12-12 00:02:39.129Z133.958° SE
7 mins2024-12-12 17:08:39.129Z244.891° WSW2024-12-12 17:11:39.129Z321.197° NNW41.389°2024-12-12 17:15:39.129Z44.631° NE
4 mins2024-12-12 18:50:39.129Z320.588° NNW2024-12-12 18:51:39.129Z338.631° N16.913°2024-12-12 18:54:39.129Z26.08° NE
|